Location: Table Mountain
(47.2500°N, 120.5778°W)
Time: 16:10:20
(UTC-07:00)

Tiangong 1 - Pass Details

Date: 08 October 2017
Orbit: 292 x 320 km, 42.8° (Epoch: 21 October)

Event Time Altitude Azimuth Distance (km) Brightness Sun altitude
Rises 18:59:27 0° 235° (SW) 2,034 5.8 -6.3°
Reaches altitude 10° 19:01:41 10° 219° (SW) 1,200 4.2 -6.7°
Maximum altitude 19:03:50 21° 166° (SSE) 759 2.4 -7.0°
Drops below altitude 10° 19:05:57 10° 112° (ESE) 1,188 3.0 -7.4°
Enters shadow 19:06:08 - 110° (ESE) 1,251 3.1 -7.4°
